2016 HO

Initial reported observation by SONEAR Observatory, Oliveira on 2016-04-24.
(Discoverer will be defined when the object is numbered. See this note on how discoverers are determined.)

Orbit

Orbit type: Amor
Near-Earth Object
One opposition object seen prior.

Note: WebGL enabled browser required.

epoch2019-04-27.0
epoch JD2458600.5
perihelion date2019-12-22.61471
perihelion JD2458840.11471
argument of perihelion (°)355.31512
ascending node (°)210.02545
inclination (°)1.56154
eccentricity0.3291231
perihelion distance (AU)1.0079093
Tisserand w.r.t. Jupiter4.5
ΔV w.r.t. Earth (km/sec)4.7
semimajor axis (AU)1.5023759
mean anomaly (°)231.75235
mean daily motion (°/day)0.53522440
aphelion distance (AU)1.997
period (years)1.84
P-vector [x]-0.90376455
P-vector [y]-0.39181916
P-vector [z]-0.17230028
Q-vector [x]0.42781271
Q-vector [y]-0.83971113
Q-vector [z]-0.33445704
absolute magnitude25.7
phase slope0.15
uncertainty4
referenceMPO 378474
observations used124
oppositions1
arc length (days)12
first opposition used2016
last opposition used2016
residual rms (arc-secs)0.44
perturbers coarse indicatorM-v
perturbers precise indicator003Eh
first observation date used2016-04-20.0
last observation date used2016-05-02.0
computer nameMPCALB
JD of orbit computation2457512.256511
perihelion JD uncertainty (days)3.8200E-05
argument of perihelion uncertainty (°)1.4854E-05
ascending node uncertainty (°)2.2660E-05
inclination uncertainty (°)3.1179E-05
eccentricity uncertainty 7.1434E-06
perihelion distance uncertainty (AU)3.8361E-08
Minimum Orbit Intersection Distances (in AU)
for orbit epoch: 2458600.5, reference: MPO378474
Mercury0.57058
Venus0.28863
Earth0.00413
Mars0.06868
Jupiter2.95695
Saturn7.27765
Uranus17.1475
Neptune27.8916

Observations

134 total observations over interval: 2016 04 20.25759 – 2016 05 02.36332
These data are available for download (format description).

